ENY1147 KMCI-KDFW

Flight info

Callsign ENY1147
Flight time 1h 14m
Altitude 32000
Route RACER8 DOSOA BVO IBAKE VKTRY2
Aircraft A346/H-SDE2E3FGHIJ3J4J5M1RWXY/LB1D1

Departure

Time 2026-05-05 07:00
Airport Kansas City International Airport (KMCI)

Arrival

Time 2026-05-05 08:14
Airport Dallas Fort Worth International Airport (KDFW)
Time Latitude Longitude Altitude Speed Heading
2026-05-05 06:32 39.29671 -94.72060 993 ft 0 kts 102°
2026-05-05 06:46 39.29674 -94.72077 993 ft 2 kts 102°
2026-05-05 06:46 39.29677 -94.72096 993 ft 2 kts 102°
2026-05-05 06:46 39.29681 -94.72115 993 ft 2 kts 129°
2026-05-05 06:46 39.29693 -94.72126 993 ft 2 kts 164°
2026-05-05 06:47 39.29708 -94.72126 992 ft 2 kts 199°
2026-05-05 06:47 39.29723 -94.72121 992 ft 2 kts 190°
2026-05-05 06:47 39.29735 -94.72117 992 ft 0 kts 193°
2026-05-05 06:53 39.29731 -94.72118 992 ft 2 kts 193°
2026-05-05 06:53 39.29672 -94.72137 993 ft 14 kts 193°
2026-05-05 06:53 39.29563 -94.72169 997 ft 16 kts 192°
2026-05-05 06:53 39.29460 -94.72199 1001 ft 14 kts 193°
2026-05-05 06:54 39.29371 -94.72225 1005 ft 12 kts 193°
2026-05-05 06:54 39.29296 -94.72248 1008 ft 10 kts 192°
2026-05-05 06:54 39.29244 -94.72292 1010 ft 8 kts 223°
2026-05-05 06:54 39.29193 -94.72302 1012 ft 7 kts 140°
2026-05-05 06:55 39.29179 -94.72235 1012 ft 9 kts 95°
2026-05-05 06:55 39.29170 -94.72130 1012 ft 14 kts 96°
2026-05-05 06:55 39.29156 -94.71974 1009 ft 20 kts 95°
2026-05-05 06:55 39.29140 -94.71775 1008 ft 23 kts 96°
2026-05-05 06:56 39.29123 -94.71558 1005 ft 25 kts 96°
2026-05-05 06:56 39.29105 -94.71331 1005 ft 25 kts 94°
2026-05-05 06:56 39.29084 -94.71101 1007 ft 25 kts 95°
2026-05-05 06:56 39.29059 -94.70926 1010 ft 17 kts 126°
2026-05-05 06:57 39.28955 -94.70924 1014 ft 16 kts 194°
2026-05-05 06:57 39.28850 -94.70956 1018 ft 14 kts 193°
2026-05-05 06:57 39.28748 -94.70987 1019 ft 15 kts 193°
2026-05-05 06:57 39.28637 -94.71021 1018 ft 17 kts 193°
2026-05-05 06:58 39.28507 -94.71057 1015 ft 20 kts 192°
2026-05-05 06:58 39.28351 -94.71103 1008 ft 25 kts 193°
2026-05-05 06:58 39.28232 -94.71137 1001 ft 15 kts 184°
2026-05-05 06:58 39.28181 -94.71079 999 ft 9 kts 99°
2026-05-05 06:59 39.28171 -94.70995 1000 ft 10 kts 99°
2026-05-05 06:59 39.28168 -94.70900 1002 ft 9 kts 55°
2026-05-05 06:59 39.28214 -94.70878 1005 ft 5 kts 13°
2026-05-05 06:59 39.28289 -94.70855 1008 ft 27 kts 12°
2026-05-05 07:00 39.28674 -94.70744 1018 ft 85 kts 13°
2026-05-05 07:00 39.29436 -94.70519 1008 ft 135 kts 13°
2026-05-05 07:00 39.30396 -94.70239 1386 ft 141 kts 15°
2026-05-05 07:00 39.31294 -94.69934 2071 ft 134 kts 19°
2026-05-05 07:01 39.32176 -94.69673 2458 ft 135 kts 15°
2026-05-05 07:01 39.33160 -94.69434 2914 ft 151 kts 14°
2026-05-05 07:01 39.34274 -94.69172 3259 ft 176 kts 14°
2026-05-05 07:01 39.35538 -94.68877 3632 ft 198 kts 13°
2026-05-05 07:02 39.36973 -94.68522 3974 ft 224 kts 13°
2026-05-05 07:02 39.38580 -94.68103 4385 ft 247 kts 10°
2026-05-05 07:02 39.40325 -94.68368 4939 ft 266 kts 334°
2026-05-05 07:02 39.41680 -94.69997 5724 ft 274 kts 298°
2026-05-05 07:03 39.42066 -94.72297 6607 ft 258 kts 265°
2026-05-05 07:03 39.41413 -94.74347 7127 ft 252 kts 230°
2026-05-05 07:03 39.39936 -94.75529 7287 ft 263 kts 193°
2026-05-05 07:03 39.38033 -94.75403 7615 ft 289 kts 169°
2026-05-05 07:04 39.36050 -94.74782 8321 ft 294 kts 169°
2026-05-05 07:04 39.34079 -94.74161 9196 ft 292 kts 170°
2026-05-05 07:04 39.32149 -94.73553 10040 ft 289 kts 170°
2026-05-05 07:04 39.30174 -94.73103 10653 ft 291 kts 181°
2026-05-05 07:05 39.28106 -94.73253 11010 ft 302 kts 192°
2026-05-05 07:05 39.26009 -94.73755 11337 ft 315 kts 197°
2026-05-05 07:05 39.23856 -94.74435 11729 ft 326 kts 199°
2026-05-05 07:05 39.21620 -94.75220 12112 ft 338 kts 199°
2026-05-05 07:06 39.19328 -94.76056 12625 ft 344 kts 200°
2026-05-05 07:06 39.17027 -94.76909 13188 ft 348 kts 200°
2026-05-05 07:06 39.14704 -94.77775 13795 ft 350 kts 201°
2026-05-05 07:06 39.12344 -94.78657 14409 ft 353 kts 201°
2026-05-05 07:07 39.09974 -94.79543 14975 ft 356 kts 201°
2026-05-05 07:07 39.07612 -94.80427 15520 ft 359 kts 201°
2026-05-05 07:07 39.05191 -94.81332 16040 ft 364 kts 201°
2026-05-05 07:07 39.02757 -94.82240 16561 ft 368 kts 201°
2026-05-05 07:08 39.00297 -94.83157 17084 ft 371 kts 201°
2026-05-05 07:08 38.97792 -94.84091 17599 ft 374 kts 201°
2026-05-05 07:08 38.95284 -94.85025 18144 ft 377 kts 201°
2026-05-05 07:08 38.92782 -94.85957 18680 ft 379 kts 201°
2026-05-05 07:09 38.90260 -94.86894 19245 ft 379 kts 201°
2026-05-05 07:09 38.87703 -94.87845 19761 ft 381 kts 201°
2026-05-05 07:09 38.85171 -94.88785 20297 ft 382 kts 201°
2026-05-05 07:09 38.82599 -94.89739 20868 ft 381 kts 201°
2026-05-05 07:10 38.80087 -94.90672 21350 ft 383 kts 200°
2026-05-05 07:10 38.77522 -94.91621 21815 ft 384 kts 201°
2026-05-05 07:10 38.74929 -94.92582 22308 ft 385 kts 200°
2026-05-05 07:10 38.72374 -94.93497 22789 ft 385 kts 200°
2026-05-05 07:11 38.69780 -94.94404 23236 ft 386 kts 199°
2026-05-05 07:11 38.67198 -94.95306 23665 ft 388 kts 200°
2026-05-05 07:11 38.64585 -94.96217 24015 ft 391 kts 200°
2026-05-05 07:11 38.61950 -94.97137 24372 ft 394 kts 200°
2026-05-05 07:12 38.59318 -94.98054 24717 ft 396 kts 200°
2026-05-05 07:12 38.56627 -94.98991 25096 ft 398 kts 200°
2026-05-05 07:12 38.53970 -94.99915 25419 ft 401 kts 201°
2026-05-05 07:12 38.51266 -95.00855 25771 ft 403 kts 201°
2026-05-05 07:13 38.48554 -95.01798 26112 ft 405 kts 201°
2026-05-05 07:13 38.45871 -95.02728 26453 ft 406 kts 201°
2026-05-05 07:13 38.43111 -95.03686 26718 ft 410 kts 201°
2026-05-05 07:13 38.40345 -95.04645 26977 ft 413 kts 201°
2026-05-05 07:14 38.37559 -95.05608 27290 ft 415 kts 202°
2026-05-05 07:14 38.34802 -95.06563 27554 ft 418 kts 202°
2026-05-05 07:14 38.31970 -95.07542 27867 ft 419 kts 202°
2026-05-05 07:14 38.29175 -95.08507 28204 ft 420 kts 202°
2026-05-05 07:15 38.26355 -95.09481 28546 ft 421 kts 202°
2026-05-05 07:15 38.23537 -95.10452 28898 ft 420 kts 203°
2026-05-05 07:15 38.20712 -95.11426 29207 ft 421 kts 203°
2026-05-05 07:15 38.17885 -95.12441 29538 ft 418 kts 207°
2026-05-05 07:16 38.15255 -95.13892 29726 ft 409 kts 216°
2026-05-05 07:16 38.10177 -95.17367 29760 ft 424 kts 216°
2026-05-05 07:17 38.04855 -95.20982 29753 ft 439 kts 216°
2026-05-05 07:17 37.99447 -95.24644 29754 ft 438 kts 216°
2026-05-05 07:18 37.94100 -95.28265 29753 ft 442 kts 216°
2026-05-05 07:18 37.88640 -95.31953 29743 ft 440 kts 217°
2026-05-05 07:19 37.83246 -95.35591 29745 ft 441 kts 216°
2026-05-05 07:19 37.77737 -95.39301 29744 ft 441 kts 217°
2026-05-05 07:20 37.72339 -95.42929 29740 ft 445 kts 217°
2026-05-05 07:20 37.66883 -95.46590 29740 ft 447 kts 216°
2026-05-05 07:21 37.61367 -95.50286 29748 ft 443 kts 217°
2026-05-05 07:21 37.55920 -95.53928 29732 ft 442 kts 217°
2026-05-05 07:22 37.50411 -95.57606 29738 ft 447 kts 217°
2026-05-05 07:22 37.44947 -95.61249 29727 ft 447 kts 217°
2026-05-05 07:23 37.39446 -95.64909 29719 ft 447 kts 217°
2026-05-05 07:23 37.33907 -95.68590 29727 ft 452 kts 216°
2026-05-05 07:24 37.28379 -95.72255 29718 ft 449 kts 216°
2026-05-05 07:24 37.22877 -95.75899 29715 ft 450 kts 217°
2026-05-05 07:25 37.17331 -95.79565 29718 ft 450 kts 217°
2026-05-05 07:25 37.11793 -95.83219 29725 ft 450 kts 217°
2026-05-05 07:26 37.06302 -95.86837 29727 ft 450 kts 217°
2026-05-05 07:26 37.00740 -95.90494 29720 ft 450 kts 217°
2026-05-05 07:27 36.95190 -95.94138 29709 ft 451 kts 217°
2026-05-05 07:27 36.89624 -95.97786 29710 ft 451 kts 217°
2026-05-05 07:28 36.84047 -96.01440 29704 ft 451 kts 218°
2026-05-05 07:28 36.78875 -96.05673 29708 ft 443 kts 224°
2026-05-05 07:29 36.73735 -96.10002 29711 ft 444 kts 224°
2026-05-05 07:29 36.68642 -96.14281 29697 ft 442 kts 224°
2026-05-05 07:30 36.63575 -96.18529 29688 ft 438 kts 224°
2026-05-05 07:30 36.55986 -96.24882 29676 ft 441 kts 224°
2026-05-05 07:31 36.50919 -96.29115 29662 ft 439 kts 224°
2026-05-05 07:31 36.45826 -96.33362 29662 ft 440 kts 224°
2026-05-05 07:32 36.40742 -96.37595 29643 ft 440 kts 224°
2026-05-05 07:32 36.35661 -96.41818 29648 ft 438 kts 225°
2026-05-05 07:33 36.30593 -96.46025 29634 ft 439 kts 224°
2026-05-05 07:33 36.25547 -96.50206 29629 ft 437 kts 224°
2026-05-05 07:34 36.20457 -96.54417 29623 ft 439 kts 224°
2026-05-05 07:34 36.15384 -96.58607 29627 ft 440 kts 225°
2026-05-05 07:35 36.10289 -96.62809 29631 ft 437 kts 225°
2026-05-05 07:35 36.05217 -96.66987 29640 ft 440 kts 224°
2026-05-05 07:36 36.00113 -96.71182 29648 ft 438 kts 224°
2026-05-05 07:36 35.94976 -96.75398 29639 ft 442 kts 224°
2026-05-05 07:37 35.89885 -96.79569 29650 ft 438 kts 224°
2026-05-05 07:37 35.84774 -96.83753 29651 ft 442 kts 224°
2026-05-05 07:38 35.79602 -96.87977 29643 ft 441 kts 224°
2026-05-05 07:38 35.74436 -96.92190 29643 ft 439 kts 224°
2026-05-05 07:39 35.69384 -96.96306 29638 ft 441 kts 224°
2026-05-05 07:39 35.64258 -97.00472 29621 ft 439 kts 224°
2026-05-05 07:40 35.59180 -97.04594 29620 ft 440 kts 224°
2026-05-05 07:40 35.54056 -97.08748 29622 ft 438 kts 224°
2026-05-05 07:41 35.48916 -97.12908 29625 ft 437 kts 224°
2026-05-05 07:41 35.43835 -97.17013 29623 ft 439 kts 224°
2026-05-05 07:42 35.38770 -97.21100 29631 ft 436 kts 224°
2026-05-05 07:42 35.33673 -97.25206 29632 ft 438 kts 224°
2026-05-05 07:43 35.28622 -97.29268 29633 ft 436 kts 224°
2026-05-05 07:43 35.23533 -97.33356 29628 ft 437 kts 223°
2026-05-05 07:44 35.18447 -97.37434 29635 ft 438 kts 223°
2026-05-05 07:44 35.13380 -97.41490 29635 ft 434 kts 223°
2026-05-05 07:45 35.08306 -97.45548 29632 ft 437 kts 223°
2026-05-05 07:45 35.02985 -97.49264 29637 ft 452 kts 212°
2026-05-05 07:46 34.99951 -97.50440 29636 ft 463 kts 204°
2026-05-05 07:46 34.96754 -97.51056 29638 ft 479 kts 195°
2026-05-05 07:46 34.90024 -97.51411 29636 ft 481 kts 194°
2026-05-05 07:47 34.83370 -97.51956 29627 ft 480 kts 194°
2026-05-05 07:47 34.76720 -97.52522 29635 ft 477 kts 195°
2026-05-05 07:48 34.70076 -97.53091 29636 ft 479 kts 195°
2026-05-05 07:48 34.63491 -97.53651 29642 ft 475 kts 195°
2026-05-05 07:49 34.56936 -97.54208 29634 ft 470 kts 195°
2026-05-05 07:49 34.50400 -97.54760 29633 ft 460 kts 195°
2026-05-05 07:50 34.47328 -97.55013 29343 ft 429 kts 196°
2026-05-05 07:50 34.44310 -97.55283 27969 ft 451 kts 194°
2026-05-05 07:50 34.41150 -97.55549 27277 ft 451 kts 194°
2026-05-05 07:50 34.38049 -97.55810 26701 ft 447 kts 194°
2026-05-05 07:51 34.34960 -97.56071 26198 ft 441 kts 194°
2026-05-05 07:51 34.31940 -97.56325 25720 ft 436 kts 194°
2026-05-05 07:51 34.28914 -97.56581 25237 ft 432 kts 193°
2026-05-05 07:51 34.25909 -97.56835 24762 ft 429 kts 193°
2026-05-05 07:52 34.22977 -97.57082 24295 ft 425 kts 193°
2026-05-05 07:52 34.20007 -97.57333 23826 ft 424 kts 193°
2026-05-05 07:52 34.17096 -97.57579 23351 ft 420 kts 193°
2026-05-05 07:52 34.14169 -97.57827 22826 ft 417 kts 192°
2026-05-05 07:53 34.11289 -97.58070 22299 ft 413 kts 192°
2026-05-05 07:53 34.08467 -97.58308 21783 ft 408 kts 192°
2026-05-05 07:53 34.05632 -97.58549 21264 ft 405 kts 192°
2026-05-05 07:53 34.02849 -97.58784 20757 ft 402 kts 191°
2026-05-05 07:54 34.00047 -97.59020 20256 ft 399 kts 191°
2026-05-05 07:54 33.97294 -97.59252 19760 ft 395 kts 191°
2026-05-05 07:54 33.94561 -97.59482 19320 ft 392 kts 191°
2026-05-05 07:54 33.91853 -97.59709 18889 ft 389 kts 191°
2026-05-05 07:55 33.89165 -97.59934 18459 ft 386 kts 191°
2026-05-05 07:55 33.86499 -97.60159 18037 ft 385 kts 191°
2026-05-05 07:55 33.83838 -97.60381 17613 ft 380 kts 191°
2026-05-05 07:55 33.81252 -97.60596 17192 ft 366 kts 191°
2026-05-05 07:56 33.78752 -97.60805 16792 ft 352 kts 191°
2026-05-05 07:56 33.76360 -97.61007 16419 ft 343 kts 191°
2026-05-05 07:56 33.73952 -97.61210 16049 ft 343 kts 191°
2026-05-05 07:56 33.71569 -97.61410 15672 ft 343 kts 191°
2026-05-05 07:57 33.69188 -97.61610 15284 ft 343 kts 191°
2026-05-05 07:57 33.66821 -97.61808 14910 ft 340 kts 191°
2026-05-05 07:57 33.64470 -97.62005 14539 ft 339 kts 190°
2026-05-05 07:57 33.62129 -97.62199 14249 ft 336 kts 190°
2026-05-05 07:58 33.59807 -97.62393 13894 ft 335 kts 190°
2026-05-05 07:58 33.57491 -97.62585 13533 ft 332 kts 190°
2026-05-05 07:58 33.55208 -97.62774 13327 ft 320 kts 190°
2026-05-05 07:58 33.53024 -97.62954 13015 ft 307 kts 190°
2026-05-05 07:59 33.50933 -97.63128 12693 ft 300 kts 191°
2026-05-05 07:59 33.48857 -97.63302 12379 ft 299 kts 191°
2026-05-05 07:59 33.46772 -97.63476 12057 ft 300 kts 190°
2026-05-05 07:59 33.44690 -97.63649 11728 ft 301 kts 190°
2026-05-05 08:00 33.42601 -97.63822 11391 ft 300 kts 190°
2026-05-05 08:00 33.40529 -97.63989 11065 ft 299 kts 187°
2026-05-05 08:00 33.38454 -97.63445 10756 ft 314 kts 157°
2026-05-05 08:00 33.36794 -97.61732 10363 ft 325 kts 130°
2026-05-05 08:01 33.35494 -97.59544 9986 ft 324 kts 129°
2026-05-05 08:01 33.34169 -97.57346 9612 ft 321 kts 130°
2026-05-05 08:01 33.32861 -97.55203 9264 ft 318 kts 130°
2026-05-05 08:01 33.31568 -97.53096 8918 ft 317 kts 130°
2026-05-05 08:02 33.30265 -97.50977 8565 ft 316 kts 130°
2026-05-05 08:02 33.28975 -97.48883 8216 ft 314 kts 130°
2026-05-05 08:02 33.27719 -97.46772 7863 ft 315 kts 121°
2026-05-05 08:02 33.27138 -97.44242 7599 ft 314 kts 96°
2026-05-05 08:03 33.26984 -97.41666 7256 ft 307 kts 95°
2026-05-05 08:03 33.26849 -97.39165 6922 ft 300 kts 95°
2026-05-05 08:03 33.26719 -97.36700 6592 ft 294 kts 95°
2026-05-05 08:03 33.26591 -97.34283 6270 ft 290 kts 95°
2026-05-05 08:04 33.26467 -97.31910 5959 ft 288 kts 96°
2026-05-05 08:04 33.26341 -97.29517 5646 ft 289 kts 96°
2026-05-05 08:04 33.26216 -97.27141 5329 ft 287 kts 97°
2026-05-05 08:04 33.26073 -97.24755 5003 ft 284 kts 104°
2026-05-05 08:05 33.25498 -97.22579 4954 ft 270 kts 117°
2026-05-05 08:05 33.24816 -97.20481 4967 ft 274 kts 117°
2026-05-05 08:05 33.24122 -97.18349 4973 ft 275 kts 117°
2026-05-05 08:05 33.23425 -97.16209 4972 ft 275 kts 117°
2026-05-05 08:06 33.22722 -97.14055 4970 ft 276 kts 117°
2026-05-05 08:06 33.22026 -97.11925 4969 ft 276 kts 117°
2026-05-05 08:06 33.21325 -97.09783 4970 ft 276 kts 117°
2026-05-05 08:06 33.20609 -97.07647 4967 ft 274 kts 124°
2026-05-05 08:07 33.19381 -97.06076 4993 ft 253 kts 161°
2026-05-05 08:07 33.17723 -97.05576 5028 ft 238 kts 181°
2026-05-05 08:07 33.16138 -97.05352 5021 ft 221 kts 182°
2026-05-05 08:07 33.14657 -97.05322 4964 ft 209 kts 188°
2026-05-05 08:08 33.13231 -97.05341 4746 ft 201 kts 189°
2026-05-05 08:08 33.11839 -97.05354 4491 ft 195 kts 189°
2026-05-05 08:08 33.10502 -97.05364 4248 ft 188 kts 189°
2026-05-05 08:08 33.09227 -97.05371 4038 ft 179 kts 189°
2026-05-05 08:09 33.08006 -97.05379 3790 ft 173 kts 189°
2026-05-05 08:09 33.06853 -97.05382 3624 ft 157 kts 190°
2026-05-05 08:09 33.05828 -97.05385 3367 ft 138 kts 190°
2026-05-05 08:09 33.04927 -97.05388 3147 ft 121 kts 191°
2026-05-05 08:10 33.04138 -97.05392 2954 ft 106 kts 191°
2026-05-05 08:10 33.03408 -97.05398 2815 ft 103 kts 191°
2026-05-05 08:10 33.02686 -97.05406 2710 ft 104 kts 190°
2026-05-05 08:10 33.01947 -97.05411 2584 ft 106 kts 190°
2026-05-05 08:11 33.01218 -97.05431 2462 ft 108 kts 189°
2026-05-05 08:11 33.00468 -97.05435 2328 ft 105 kts 187°
2026-05-05 08:11 32.99721 -97.05444 2204 ft 105 kts 188°
2026-05-05 08:11 32.98975 -97.05444 2040 ft 106 kts 185°
2026-05-05 08:12 32.98243 -97.05450 1894 ft 106 kts 186°
2026-05-05 08:12 32.97515 -97.05448 1762 ft 109 kts 183°
2026-05-05 08:12 32.96772 -97.05437 1624 ft 103 kts 185°
2026-05-05 08:12 32.96014 -97.05456 1479 ft 110 kts 184°
2026-05-05 08:13 32.95248 -97.05464 1317 ft 111 kts 182°
2026-05-05 08:13 32.94485 -97.05447 1188 ft 108 kts 183°
2026-05-05 08:13 32.93695 -97.05471 1047 ft 114 kts 183°
2026-05-05 08:13 32.92903 -97.05476 896 ft 113 kts 182°
2026-05-05 08:14 32.92101 -97.05474 743 ft 116 kts 181°
2026-05-05 08:14 32.91300 -97.05467 604 ft 114 kts 181°
2026-05-05 08:14 32.90612 -97.05473 614 ft 77 kts 180°
2026-05-05 08:14 32.90250 -97.05476 616 ft 26 kts 179°
2026-05-05 08:15 32.90082 -97.05461 614 ft 21 kts 168°
2026-05-05 08:15 32.89936 -97.05400 611 ft 21 kts 154°
2026-05-05 08:15 32.89813 -97.05314 608 ft 17 kts 151°
2026-05-05 08:15 32.89758 -97.05227 606 ft 13 kts 88°
2026-05-05 08:16 32.89758 -97.05119 606 ft 12 kts 88°
2026-05-05 08:16 32.89758 -97.05009 605 ft 13 kts 93°
2026-05-05 08:16 32.89755 -97.04903 603 ft 4 kts 86°
2026-05-05 08:16 32.89757 -97.04857 602 ft 6 kts 89°
2026-05-05 08:17 32.89756 -97.04796 601 ft 7 kts 91°
2026-05-05 08:17 32.89790 -97.04762 602 ft 8 kts 355°
2026-05-05 08:17 32.89857 -97.04765 602 ft 10 kts
2026-05-05 08:17 32.89937 -97.04764 603 ft 12 kts
2026-05-05 08:18 32.90034 -97.04764 605 ft 14 kts
2026-05-05 08:18 32.90142 -97.04764 605 ft 16 kts
2026-05-05 08:18 32.90257 -97.04763 605 ft 16 kts
2026-05-05 08:18 32.90375 -97.04762 604 ft 17 kts
2026-05-05 08:19 32.90497 -97.04765 602 ft 17 kts
2026-05-05 08:19 32.90588 -97.04761 600 ft 8 kts
2026-05-05 08:19 32.90610 -97.04718 599 ft 7 kts 92°
2026-05-05 08:19 32.90601 -97.04650 597 ft 9 kts 109°
2026-05-05 08:20 32.90582 -97.04588 597 ft 5 kts 110°
2026-05-05 08:20 32.90572 -97.04552 597 ft 1 kts 111°
2026-05-05 08:20 32.90571 -97.04551 596 ft 0 kts 110°